Time,TemperatureF,DewpointF,PressureIn,WindDirection,WindDirectionDegrees,WindSpeedMPH,WindSpeedGustMPH,Humidity,HourlyPrecipIn,Conditions,Clouds,dailyrainin,SoftwareType,DateUTC
2013-09-23 00:00:00,54.6,46.5,30.02,ENE,63,7.0,9.0,74,0.00,,CLR,0.00,VWS V14.01,2013-09-23 05:00:00,
2013-09-23 00:03:00,54.7,46.9,30.02,East,82,6.0,10.0,75,0.00,,SCT028,0.00,VWS V14.01,2013-09-23 05:03:00,
2013-09-23 00:05:00,54.8,47.0,30.02,East,97,7.0,10.0,75,0.00,,CLR,0.00,VWS V14.01,2013-09-23 05:05:00,
2013-09-23 00:08:00,54.7,46.9,30.02,NE,44,5.0,8.0,75,0.00,,SCT028,0.00,VWS V14.01,2013-09-23 05:08:00,
2013-09-23 00:10:00,54.7,46.9,30.02,NE,45,5.0,8.0,75,0.00,,CLR,0.00,VWS V14.01,2013-09-23 05:10:00,
2013-09-23 00:13:00,54.8,46.7,30.02,NE,52,3.0,10.0,74,0.00,,SCT028,0.00,VWS V14.01,2013-09-23 05:13:00,
2013-09-23 00:15:00,54.8,47.0,30.02,ENE,75,5.0,10.0,75,0.00,,CLR,0.00,VWS V14.01,2013-09-23 05:15:00,
2013-09-23 00:19:00,54.7,46.6,30.02,ENE,70,8.0,9.0,74,0.00,,SCT028,0.00,VWS V14.01,2013-09-23 05:19:00,
2013-09-23 00:20:00,54.7,46.6,30.02,East,82,9.0,9.0,74,0.00,,CLR,0.00,VWS V14.01,2013-09-23 05:20:00,
2013-09-23 00:24:00,54.7,46.9,30.02,ENE,62,7.0,11.0,75,0.00,,SCT028,0.00,VWS V14.01,2013-09-23 05:24:00,
2013-09-23 00:25:00,54.7,46.9,30.02,East,86,7.0,11.0,75,0.00,,CLR,0.00,VWS V14.01,2013-09-23 05:25:00,
2013-09-23 00:29:00,54.7,46.9,30.02,East,81,6.0,10.0,75,0.00,,SCT028,0.00,VWS V14.01,2013-09-23 05:29:00,
2013-09-23 00:30:00,54.7,46.9,30.02,ENE,66,7.0,10.0,75,0.00,,CLR,0.00,VWS V14.01,2013-09-23 05:30:00,
2013-09-23 00:34:00,54.6,46.5,30.02,ENE,74,3.0,11.0,74,0.00,,SCT028,0.00,VWS V14.01,2013-09-23 05:34:00,
2013-09-23 00:35:00,54.6,46.5,30.01,East,86,6.0,11.0,74,0.00,,CLR,0.00,VWS V14.01,2013-09-23 05:35:00,
2013-09-23 00:39:00,54.6,46.5,30.02,East,86,6.0,9.0,74,0.00,,SCT028,0.00,VWS V14.01,2013-09-23 05:39:00,
2013-09-23 00:40:00,54.6,46.5,30.02,NE,49,5.0,9.0,74,0.00,,CLR,0.00,VWS V14.01,2013-09-23 05:40:00,
2013-09-23 00:44:00,54.5,46.4,30.02,ENE,65,4.0,11.0,74,0.00,,SCT028,0.00,VWS V14.01,2013-09-23 05:44:00,
2013-09-23 00:45:00,54.5,46.4,30.02,East,80,5.0,11.0,74,0.00,,CLR,0.00,VWS V14.01,2013-09-23 05:45:00,
2013-09-23 00:49:00,54.6,46.5,30.02,East,86,5.0,8.0,74,0.00,,SCT028,0.00,VWS V14.01,2013-09-23 05:49:00,
2013-09-23 00:50:00,54.6,46.5,30.02,East,84,5.0,8.0,74,0.00,,CLR,0.00,VWS V14.01,2013-09-23 05:50:00,
2013-09-23 00:54:00,54.4,46.3,30.02,ENE,76,4.0,8.0,74,0.00,,SCT028,0.00,VWS V14.01,2013-09-23 05:54:00,
2013-09-23 00:55:00,54.4,46.3,30.02,East,80,2.0,8.0,74,0.00,,CLR,0.00,VWS V14.01,2013-09-23 05:55:00,
2013-09-23 00:59:00,54.4,46.3,30.02,East,82,7.0,10.0,74,0.00,,SCT028,0.00,VWS V14.01,2013-09-23 05:59:00,
2013-09-23 01:00:00,54.4,46.3,30.01,ENE,71,8.0,10.0,74,0.00,,CLR,0.00,VWS V14.01,2013-09-23 06:00:00,
2013-09-23 01:04:00,54.4,45.9,30.02,ESE,119,4.0,9.0,73,0.00,,FEW028,0.00,VWS V14.01,2013-09-23 06:04:00,
2013-09-23 01:05:00,54.4,45.9,30.02,ESE,119,4.0,9.0,73,0.00,,CLR,0.00,VWS V14.01,2013-09-23 06:05:00,
2013-09-23 01:09:00,54.5,46.4,30.02,ENE,61,5.0,10.0,74,0.00,,FEW028,0.00,VWS V14.01,2013-09-23 06:09:00,
2013-09-23 01:10:00,54.5,46.4,30.02,ENE,61,5.0,10.0,74,0.00,,CLR,0.00,VWS V14.01,2013-09-23 06:10:00,
2013-09-23 01:14:00,54.4,46.3,30.02,East,82,0.0,10.0,74,0.00,,FEW028,0.00,VWS V14.01,2013-09-23 06:14:00,
2013-09-23 01:15:00,54.4,46.3,30.02,East,82,0.0,10.0,74,0.00,,CLR,0.00,VWS V14.01,2013-09-23 06:15:00,
2013-09-23 01:20:00,54.4,46.3,30.02,East,98,5.0,10.0,74,0.00,,FEW028,0.00,VWS V14.01,2013-09-23 06:20:00,
2013-09-23 01:25:00,54.4,45.9,30.02,ENE,66,8.0,9.0,73,0.00,,FEW028,0.00,VWS V14.01,2013-09-23 06:25:00,
2013-09-23 01:30:00,54.4,45.9,30.02,East,94,5.0,8.0,73,0.00,,FEW028,0.00,VWS V14.01,2013-09-23 06:30:00,
2013-09-23 01:35:00,54.4,46.3,30.02,East,96,6.0,6.0,74,0.00,,FEW028,0.00,VWS V14.01,2013-09-23 06:35:00,
2013-09-23 01:40:00,54.4,46.7,30.02,East,98,0.0,5.0,75,0.00,,FEW028,0.00,VWS V14.01,2013-09-23 06:40:00,
2013-09-23 01:45:00,54.5,47.1,30.02,ENE,61,2.0,9.0,76,0.00,,FEW028,0.00,VWS V14.01,2013-09-23 06:45:00,
2013-09-23 01:50:00,54.5,46.8,30.02,East,98,3.0,9.0,75,0.00,,FEW028,0.00,VWS V14.01,2013-09-23 06:50:00,
2013-09-23 01:55:00,54.5,46.4,30.02,ESE,111,3.0,7.0,74,0.00,,FEW028,0.00,VWS V14.01,2013-09-23 06:55:00,
2013-09-23 02:00:00,54.5,46.8,30.02,East,80,3.0,7.0,75,0.00,,FEW028,0.00,VWS V14.01,2013-09-23 07:00:00,
2013-09-23 02:05:00,54.6,46.5,30.02,East,84,1.0,9.0,74,0.00,,FEW028,0.00,VWS V14.01,2013-09-23 07:05:00,
2013-09-23 02:10:00,54.5,46.8,30.02,East,98,0.0,10.0,75,0.00,,FEW028,0.00,VWS V14.01,2013-09-23 07:10:00,
2013-09-23 02:15:00,54.6,46.8,30.02,ENE,76,5.0,9.0,75,0.00,,FEW028,0.00,VWS V14.01,2013-09-23 07:15:00,
2013-09-23 02:20:00,54.6,46.8,30.02,East,94,8.0,9.0,75,0.00,,FEW028,0.00,VWS V14.01,2013-09-23 07:20:00,
2013-09-23 02:25:00,54.7,46.6,30.02,ESE,117,7.0,9.0,74,0.00,,FEW028,0.00,VWS V14.01,2013-09-23 07:25:00,
2013-09-23 02:30:00,54.7,46.9,30.02,East,93,0.0,9.0,75,0.00,,FEW028,0.00,VWS V14.01,2013-09-23 07:30:00,
2013-09-23 02:35:00,54.7,47.3,30.02,ESE,113,7.0,8.0,76,0.00,,CLR,0.00,VWS V14.01,2013-09-23 07:35:00,
2013-09-23 02:36:00,54.7,47.3,30.02,East,86,3.0,8.0,76,0.00,,FEW028,0.00,VWS V14.01,2013-09-23 07:36:00,
2013-09-23 02:40:00,54.8,47.4,30.02,ENE,73,0.0,9.0,76,0.00,,CLR,0.00,VWS V14.01,2013-09-23 07:40:00,
2013-09-23 02:41:00,54.8,47.4,30.01,East,86,5.0,9.0,76,0.00,,FEW028,0.00,VWS V14.01,2013-09-23 07:41:00,
2013-09-23 02:45:00,54.8,47.0,30.01,East,99,8.0,8.0,75,0.00,,CLR,0.00,VWS V14.01,2013-09-23 07:45:00,
2013-09-23 02:46:00,54.8,47.0,30.01,East,87,0.0,8.0,75,0.00,,FEW028,0.00,VWS V14.01,2013-09-23 07:46:00,
2013-09-23 02:50:00,54.8,47.0,30.01,ESE,110,0.0,6.0,75,0.00,,CLR,0.00,VWS V14.01,2013-09-23 07:50:00,
2013-09-23 02:51:00,54.8,47.0,30.02,ESE,104,3.0,8.0,75,0.00,,FEW028,0.00,VWS V14.01,2013-09-23 07:51:00,
2013-09-23 02:55:00,54.8,47.0,30.02,ESE,105,8.0,9.0,75,0.00,,CLR,0.00,VWS V14.01,2013-09-23 07:55:00,
2013-09-23 02:56:00,54.8,47.4,30.02,ESE,104,3.0,9.0,76,0.00,,FEW028,0.00,VWS V14.01,2013-09-23 07:56:00,
2013-09-23 03:00:00,54.9,47.8,30.02,East,80,10.0,10.0,77,0.00,,CLR,0.00,VWS V14.01,2013-09-23 08:00:00,
2013-09-23 03:01:00,54.9,47.8,30.02,East,99,3.0,10.0,77,0.00,,FEW024,0.00,VWS V14.01,2013-09-23 08:01:00,
2013-09-23 03:05:00,54.9,47.8,30.02,East,90,5.0,10.0,77,0.00,,CLR,0.00,VWS V14.01,2013-09-23 08:05:00,
2013-09-23 03:06:00,54.9,47.8,30.02,East,92,3.0,9.0,77,0.00,,FEW024,0.00,VWS V14.01,2013-09-23 08:06:00,
2013-09-23 03:10:00,54.9,48.2,30.02,East,92,5.0,9.0,78,0.00,,CLR,0.00,VWS V14.01,2013-09-23 08:10:00,
2013-09-23 03:11:00,54.8,48.1,30.02,ESE,104,4.0,9.0,78,0.00,,FEW024,0.00,VWS V14.01,2013-09-23 08:11:00,
2013-09-23 03:15:00,54.8,47.7,30.02,SE,134,0.0,9.0,77,0.00,,CLR,0.00,VWS V14.01,2013-09-23 08:15:00,
2013-09-23 03:16:00,54.8,47.7,30.02,East,96,0.0,9.0,77,0.00,,FEW024,0.00,VWS V14.01,2013-09-23 08:16:00,
2013-09-23 03:20:00,54.8,47.7,30.02,East,90,7.0,7.0,77,0.00,,CLR,0.00,VWS V14.01,2013-09-23 08:20:00,
2013-09-23 03:21:00,54.8,47.7,30.02,East,98,3.0,8.0,77,0.00,,FEW024,0.00,VWS V14.01,2013-09-23 08:21:00,
2013-09-23 03:25:00,54.8,47.7,30.02,East,91,3.0,9.0,77,0.00,,CLR,0.00,VWS V14.01,2013-09-23 08:25:00,
2013-09-23 03:26:00,54.8,48.1,30.02,ENE,74,7.0,10.0,78,0.00,,FEW024,0.00,VWS V14.01,2013-09-23 08:26:00,
2013-09-23 03:30:00,54.7,47.6,30.02,East,91,1.0,10.0,77,0.00,,CLR,0.00,VWS V14.01,2013-09-23 08:30:00,
2013-09-23 03:31:00,54.7,47.6,30.02,ESE,104,0.0,8.0,77,0.00,,FEW024,0.00,VWS V14.01,2013-09-23 08:31:00,
2013-09-23 03:35:00,54.8,48.1,30.02,East,97,0.0,6.0,78,0.00,,CLR,0.00,VWS V14.01,2013-09-23 08:35:00,
2013-09-23 03:36:00,54.8,48.1,30.02,ESE,103,0.0,3.0,78,0.00,,FEW024,0.00,VWS V14.01,2013-09-23 08:36:00,
2013-09-23 03:40:00,54.7,47.6,30.02,East,96,0.0,4.0,77,0.00,,CLR,0.00,VWS V14.01,2013-09-23 08:40:00,
2013-09-23 03:41:00,54.7,47.6,30.02,East,85,9.0,9.0,77,0.00,,FEW024,0.00,VWS V14.01,2013-09-23 08:41:00,
2013-09-23 03:45:00,54.7,47.6,30.02,East,101,0.0,9.0,77,0.00,,CLR,0.00,VWS V14.01,2013-09-23 08:45:00,
2013-09-23 03:46:00,54.7,48.0,30.02,ENE,71,4.0,7.0,78,0.00,,FEW024,0.00,VWS V14.01,2013-09-23 08:46:00,
2013-09-23 03:50:00,54.7,48.0,30.02,East,100,0.0,8.0,78,0.00,,CLR,0.00,VWS V14.01,2013-09-23 08:50:00,
2013-09-23 03:51:00,54.6,47.5,30.02,SE,128,3.0,5.0,77,0.00,,FEW024,0.00,VWS V14.01,2013-09-23 08:51:00,
2013-09-23 03:55:00,54.6,47.5,30.02,ESE,107,0.0,5.0,77,0.00,,CLR,0.00,VWS V14.01,2013-09-23 08:55:00,
2013-09-23 03:56:00,54.6,47.5,30.02,ESE,121,0.0,4.0,77,0.00,,FEW024,0.00,VWS V14.01,2013-09-23 08:56:00,
2013-09-23 04:00:00,54.6,47.5,30.02,ESE,111,3.0,4.0,77,0.00,,CLR,0.00,VWS V14.01,2013-09-23 09:00:00,
2013-09-23 04:02:00,54.6,47.5,30.02,East,84,0.0,4.0,77,0.00,,SCT025,0.00,VWS V14.01,2013-09-23 09:02:00,
2013-09-23 04:05:00,54.7,48.0,30.02,East,90,0.0,5.0,78,0.00,,CLR,0.00,VWS V14.01,2013-09-23 09:05:00,
2013-09-23 04:07:00,54.6,47.9,30.03,ESE,110,0.0,5.0,78,0.00,,SCT025,0.00,VWS V14.01,2013-09-23 09:07:00,
2013-09-23 04:10:00,54.6,47.9,30.03,East,92,0.0,5.0,78,0.00,,CLR,0.00,VWS V14.01,2013-09-23 09:10:00,
2013-09-23 04:12:00,54.7,48.3,30.03,ESE,120,0.0,7.0,79,0.00,,SCT025,0.00,VWS V14.01,2013-09-23 09:12:00,
2013-09-23 04:15:00,54.7,48.0,30.03,ESE,103,0.0,5.0,78,0.00,,CLR,0.00,VWS V14.01,2013-09-23 09:15:00,
2013-09-23 04:17:00,54.7,48.0,30.03,ESE,105,5.0,5.0,78,0.00,,SCT025,0.00,VWS V14.01,2013-09-23 09:17:00,
2013-09-23 04:20:00,54.7,48.0,30.03,East,100,0.0,7.0,78,0.00,,CLR,0.00,VWS V14.01,2013-09-23 09:20:00,
2013-09-23 04:22:00,54.7,48.0,30.03,ESE,123,0.0,7.0,78,0.00,,SCT025,0.00,VWS V14.01,2013-09-23 09:22:00,
2013-09-23 04:25:00,54.7,48.0,30.03,ESE,114,2.0,5.0,78,0.00,,CLR,0.00,VWS V14.01,2013-09-23 09:25:00,
2013-09-23 04:27:00,54.8,48.1,30.03,ENE,74,0.0,8.0,78,0.00,,SCT025,0.00,VWS V14.01,2013-09-23 09:27:00,
2013-09-23 04:30:00,54.8,47.7,30.03,East,89,0.0,8.0,77,0.00,,CLR,0.00,VWS V14.01,2013-09-23 09:30:00,
2013-09-23 04:32:00,54.8,47.7,30.03,ESE,113,3.0,7.0,77,0.00,,BKN025,0.00,VWS V14.01,2013-09-23 09:32:00,
2013-09-23 04:35:00,54.7,47.6,30.03,ESE,114,0.0,7.0,77,0.00,,CLR,0.00,VWS V14.01,2013-09-23 09:35:00,
2013-09-23 04:37:00,54.7,47.6,30.03,SE,135,0.0,3.0,77,0.00,,BKN025,0.00,VWS V14.01,2013-09-23 09:37:00,
2013-09-23 04:40:00,54.8,47.7,30.03,SE,138,0.0,3.0,77,0.00,,CLR,0.00,VWS V14.01,2013-09-23 09:40:00,
2013-09-23 04:42:00,54.8,47.7,30.03,SE,137,0.0,8.0,77,0.00,,BKN025,0.00,VWS V14.01,2013-09-23 09:42:00,
2013-09-23 04:45:00,54.8,47.7,30.03,ESE,117,0.0,8.0,77,0.00,,CLR,0.00,VWS V14.01,2013-09-23 09:45:00,
2013-09-23 04:47:00,54.8,47.7,30.03,ESE,112,2.0,2.0,77,0.00,,BKN025,0.00,VWS V14.01,2013-09-23 09:47:00,
2013-09-23 04:50:00,54.8,47.7,30.03,East,96,0.0,4.0,77,0.00,,CLR,0.00,VWS V14.01,2013-09-23 09:50:00,
2013-09-23 04:52:00,54.8,48.1,30.03,ESE,103,0.0,2.0,78,0.00,,BKN025,0.00,VWS V14.01,2013-09-23 09:52:00,
2013-09-23 04:55:00,54.8,48.1,30.03,ESE,121,0.0,3.0,78,0.00,,CLR,0.00,VWS V14.01,2013-09-23 09:55:00,
2013-09-23 04:57:00,54.8,47.7,30.03,SE,127,0.0,7.0,77,0.00,,BKN025,0.00,VWS V14.01,2013-09-23 09:57:00,
2013-09-23 05:00:00,54.9,48.2,30.03,ESE,109,0.0,7.0,78,0.00,,CLR,0.00,VWS V14.01,2013-09-23 10:00:00,
2013-09-23 05:02:00,54.9,48.2,30.03,SE,132,0.0,7.0,78,0.00,,BKN025,0.00,VWS V14.01,2013-09-23 10:02:00,
2013-09-23 05:05:00,54.9,47.8,30.03,ESE,117,4.0,5.0,77,0.00,,CLR,0.00,VWS V14.01,2013-09-23 10:05:00,
2013-09-23 05:07:00,54.9,48.2,30.03,ESE,116,0.0,5.0,78,0.00,,BKN025,0.00,VWS V14.01,2013-09-23 10:07:00,
2013-09-23 05:10:00,54.9,48.2,30.03,ESE,116,0.0,3.0,78,0.00,,CLR,0.00,VWS V14.01,2013-09-23 10:10:00,
2013-09-23 05:12:00,54.9,47.8,30.03,East,87,0.0,7.0,77,0.00,,BKN025,0.00,VWS V14.01,2013-09-23 10:12:00,
2013-09-23 05:15:00,54.9,47.8,30.03,SSE,157,0.0,7.0,77,0.00,,CLR,0.00,VWS V14.01,2013-09-23 10:15:00,
2013-09-23 05:17:00,54.9,47.8,30.04,ESE,105,3.0,5.0,77,0.00,,BKN025,0.00,VWS V14.01,2013-09-23 10:17:00,
2013-09-23 05:20:00,54.9,47.8,30.04,ESE,117,0.0,5.0,77,0.00,,CLR,0.00,VWS V14.01,2013-09-23 10:20:00,
2013-09-23 05:22:00,54.9,47.8,30.04,ESE,119,0.0,0.0,77,0.00,,BKN025,0.00,VWS V14.01,2013-09-23 10:22:00,
2013-09-23 05:25:00,55.0,47.9,30.03,ESE,102,0.0,1.0,77,0.00,,CLR,0.00,VWS V14.01,2013-09-23 10:25:00,
2013-09-23 05:27:00,55.0,47.9,30.03,East,96,0.0,2.0,77,0.00,,BKN025,0.00,VWS V14.01,2013-09-23 10:27:00,
2013-09-23 05:30:00,55.0,47.9,30.03,East,99,0.0,2.0,77,0.00,,CLR,0.00,VWS V14.01,2013-09-23 10:30:00,
2013-09-23 05:32:00,55.0,48.3,30.03,ESE,120,7.0,7.0,78,0.00,,BKN025,0.00,VWS V14.01,2013-09-23 10:32:00,
2013-09-23 05:35:00,55.0,47.9,30.03,ESE,108,0.0,7.0,77,0.00,,CLR,0.00,VWS V14.01,2013-09-23 10:35:00,
2013-09-23 05:37:00,55.0,47.9,30.04,East,98,0.0,5.0,77,0.00,,BKN025,0.00,VWS V14.01,2013-09-23 10:37:00,
2013-09-23 05:40:00,55.0,47.9,30.04,ESE,109,0.0,5.0,77,0.00,,CLR,0.00,VWS V14.01,2013-09-23 10:40:00,
2013-09-23 05:43:00,55.1,48.0,30.04,ESE,103,4.0,7.0,77,0.00,,BKN025,0.00,VWS V14.01,2013-09-23 10:43:00,
2013-09-23 05:45:00,55.1,48.0,30.04,East,98,0.0,7.0,77,0.00,,CLR,0.00,VWS V14.01,2013-09-23 10:45:00,
2013-09-23 05:48:00,55.1,48.0,30.04,East,94,0.0,6.0,77,0.00,,BKN025,0.00,VWS V14.01,2013-09-23 10:48:00,
2013-09-23 05:50:00,55.1,48.0,30.04,ENE,76,0.0,6.0,77,0.00,,CLR,0.00,VWS V14.01,2013-09-23 10:50:00,
2013-09-23 05:53:00,55.1,48.4,30.04,SE,144,0.0,1.0,78,0.00,,BKN025,0.00,VWS V14.01,2013-09-23 10:53:00,
2013-09-23 05:55:00,55.1,48.4,30.04,South,169,0.0,2.0,78,0.00,,CLR,0.00,VWS V14.01,2013-09-23 10:55:00,
2013-09-23 05:58:00,55.1,48.4,30.04,ESE,114,3.0,4.0,78,0.00,,BKN025,0.00,VWS V14.01,2013-09-23 10:58:00,
2013-09-23 06:00:00,55.1,48.0,30.05,ESE,117,0.0,7.0,77,0.00,,CLR,0.00,VWS V14.01,2013-09-23 11:00:00,
2013-09-23 06:03:00,55.1,48.0,30.05,East,85,0.0,7.0,77,0.00,,BKN025,0.00,VWS V14.01,2013-09-23 11:03:00,
2013-09-23 06:05:00,55.1,48.0,30.05,East,101,1.0,8.0,77,0.00,,CLR,0.00,VWS V14.01,2013-09-23 11:05:00,
2013-09-23 06:08:00,55.2,48.1,30.05,East,101,0.0,8.0,77,0.00,,BKN025,0.00,VWS V14.01,2013-09-23 11:08:00,
2013-09-23 06:10:00,55.2,48.1,30.05,SSE,157,0.0,2.0,77,0.00,,CLR,0.00,VWS V14.01,2013-09-23 11:10:00,
2013-09-23 06:13:00,55.2,48.1,30.05,ESE,117,0.0,1.0,77,0.00,,BKN025,0.00,VWS V14.01,2013-09-23 11:13:00,
2013-09-23 06:15:00,55.2,48.1,30.05,East,95,0.0,7.0,77,0.00,,CLR,0.00,VWS V14.01,2013-09-23 11:15:00,
2013-09-23 06:18:00,55.2,48.1,30.05,ESE,113,0.0,7.0,77,0.00,,BKN025,0.00,VWS V14.01,2013-09-23 11:18:00,
2013-09-23 06:20:00,55.2,48.1,30.05,East,90,2.0,6.0,77,0.00,,CLR,0.00,VWS V14.01,2013-09-23 11:20:00,
2013-09-23 06:23:00,55.2,48.1,30.05,East,90,0.0,6.0,77,0.00,,BKN025,0.00,VWS V14.01,2013-09-23 11:23:00,
2013-09-23 06:25:00,55.2,48.1,30.05,SE,140,0.0,1.0,77,0.00,,CLR,0.00,VWS V14.01,2013-09-23 11:25:00,
2013-09-23 06:28:00,55.1,48.0,30.05,SE,128,0.0,1.0,77,0.00,,BKN025,0.00,VWS V14.01,2013-09-23 11:28:00,
2013-09-23 06:30:00,55.1,48.0,30.05,ESE,121,0.0,0.0,77,0.00,,CLR,0.00,VWS V14.01,2013-09-23 11:30:00,
2013-09-23 06:33:00,55.1,47.7,30.05,ESE,121,0.0,2.0,76,0.00,,SCT025,0.00,VWS V14.01,2013-09-23 11:33:00,
2013-09-23 06:35:00,55.1,48.0,30.05,ESE,108,0.0,3.0,77,0.00,,CLR,0.00,VWS V14.01,2013-09-23 11:35:00,
2013-09-23 06:38:00,55.1,48.0,30.05,ESE,105,0.0,3.0,77,0.00,,SCT025,0.00,VWS V14.01,2013-09-23 11:38:00,
2013-09-23 06:40:00,55.1,48.0,30.05,ESE,105,0.0,1.0,77,0.00,,CLR,0.00,VWS V14.01,2013-09-23 11:40:00,
2013-09-23 06:43:00,55.1,48.0,30.05,ESE,105,0.0,0.0,77,0.00,,SCT025,0.00,VWS V14.01,2013-09-23 11:43:00,
2013-09-23 06:45:00,55.1,48.0,30.05,ESE,105,0.0,0.0,77,0.00,,CLR,0.00,VWS V14.01,2013-09-23 11:45:00,
2013-09-23 06:48:00,55.1,48.0,30.05,ESE,105,0.0,0.0,77,0.00,,SCT025,0.00,VWS V14.01,2013-09-23 11:48:00,
2013-09-23 06:50:00,55.0,47.6,30.05,SSE,165,1.0,2.0,76,0.00,,CLR,0.00,VWS V14.01,2013-09-23 11:50:00,
2013-09-23 06:53:00,54.5,47.8,30.06,SSE,163,0.0,5.0,78,0.00,,SCT025,0.00,VWS V14.01,2013-09-23 11:53:00,
2013-09-23 06:55:00,54.4,47.7,30.05,SSE,148,0.0,5.0,78,0.00,,CLR,0.00,VWS V14.01,2013-09-23 11:55:00,
2013-09-23 06:58:00,54.4,48.0,30.06,SSE,147,0.0,3.0,79,0.00,,SCT025,0.00,VWS V14.01,2013-09-23 11:58:00,
2013-09-23 07:00:00,54.4,48.0,30.06,ENE,65,1.0,5.0,79,0.00,,CLR,0.00,VWS V14.01,2013-09-23 12:00:00,
2013-09-23 07:03:00,54.6,48.2,30.06,NE,55,0.0,5.0,79,0.00,,BKN025,0.00,VWS V14.01,2013-09-23 12:03:00,
2013-09-23 07:05:00,54.7,48.3,30.06,ENE,57,0.0,1.0,79,0.00,,CLR,0.00,VWS V14.01,2013-09-23 12:05:00,
2013-09-23 07:08:00,55.0,48.3,30.05,ESE,113,0.0,4.0,78,0.00,,BKN025,0.00,VWS V14.01,2013-09-23 12:08:00,
2013-09-23 07:10:00,55.0,48.3,30.06,ESE,113,0.0,4.0,78,0.00,,CLR,0.00,VWS V14.01,2013-09-23 12:10:00,
2013-09-23 07:13:00,55.3,48.2,30.06,ESE,117,0.0,5.0,77,0.00,,BKN025,0.00,VWS V14.01,2013-09-23 12:13:00,
2013-09-23 07:15:00,55.4,48.7,30.06,SSE,150,0.0,5.0,78,0.00,,CLR,0.00,VWS V14.01,2013-09-23 12:15:00,
2013-09-23 07:18:00,55.6,48.5,30.06,ESE,120,5.0,9.0,77,0.00,,BKN025,0.00,VWS V14.01,2013-09-23 12:18:00,
2013-09-23 07:20:00,55.7,48.6,30.06,East,88,0.0,9.0,77,0.00,,CLR,0.00,VWS V14.01,2013-09-23 12:20:00,
2013-09-23 07:23:00,55.8,48.7,30.05,ESE,119,4.0,7.0,77,0.00,,BKN025,0.00,VWS V14.01,2013-09-23 12:23:00,
2013-09-23 07:25:00,55.8,48.7,30.05,SE,141,0.0,7.0,77,0.00,,CLR,0.00,VWS V14.01,2013-09-23 12:25:00,
2013-09-23 07:29:00,56.0,48.5,30.05,East,90,1.0,9.0,76,0.00,,BKN025,0.00,VWS V14.01,2013-09-23 12:29:00,
2013-09-23 07:30:00,56.0,48.5,30.05,East,101,5.0,9.0,76,0.00,,CLR,0.00,VWS V14.01,2013-09-23 12:30:00,
2013-09-23 07:34:00,56.2,48.8,30.06,SE,124,0.0,6.0,76,0.00,,BKN025,0.00,VWS V14.01,2013-09-23 12:34:00,
2013-09-23 07:35:00,56.2,48.8,30.06,SE,137,5.0,8.0,76,0.00,,CLR,0.00,VWS V14.01,2013-09-23 12:35:00,
2013-09-23 07:39:00,56.3,48.5,30.06,ESE,120,0.0,7.0,75,0.00,,BKN025,0.00,VWS V14.01,2013-09-23 12:39:00,
2013-09-23 07:40:00,56.4,48.6,30.06,SE,129,0.0,7.0,75,0.00,,CLR,0.00,VWS V14.01,2013-09-23 12:40:00,
2013-09-23 07:44:00,56.3,48.1,30.06,East,100,0.0,6.0,74,0.00,,BKN025,0.00,VWS V14.01,2013-09-23 12:44:00,
2013-09-23 07:45:00,56.3,48.1,30.06,East,86,8.0,8.0,74,0.00,,CLR,0.00,VWS V14.01,2013-09-23 12:45:00,
2013-09-23 07:49:00,56.3,48.5,30.06,East,92,0.0,7.0,75,0.00,,BKN025,0.00,VWS V14.01,2013-09-23 12:49:00,
2013-09-23 07:50:00,56.3,48.5,30.06,East,98,0.0,7.0,75,0.00,,CLR,0.00,VWS V14.01,2013-09-23 12:50:00,
2013-09-23 07:54:00,56.4,48.9,30.06,SE,124,0.0,8.0,76,0.00,,BKN025,0.00,VWS V14.01,2013-09-23 12:54:00,
2013-09-23 07:55:00,56.5,48.7,30.06,SSE,157,0.0,8.0,75,0.00,,CLR,0.00,VWS V14.01,2013-09-23 12:55:00,
2013-09-23 07:59:00,56.5,48.7,30.06,ESE,111,0.0,4.0,75,0.00,,BKN025,0.00,VWS V14.01,2013-09-23 12:59:00,
2013-09-23 08:00:00,56.5,48.7,30.06,SE,138,2.0,7.0,75,0.00,,CLR,0.00,VWS V14.01,2013-09-23 13:00:00,
2013-09-23 08:04:00,56.6,48.8,30.06,East,101,0.0,8.0,75,0.00,,BKN025,0.00,VWS V14.01,2013-09-23 13:04:00,
2013-09-23 08:05:00,56.7,48.9,30.06,SSE,150,0.0,8.0,75,0.00,,CLR,0.00,VWS V14.01,2013-09-23 13:05:00,
2013-09-23 08:09:00,56.8,48.6,30.06,SE,140,0.0,8.0,74,0.00,,BKN025,0.00,VWS V14.01,2013-09-23 13:09:00,
2013-09-23 08:10:00,56.8,48.6,30.06,SE,126,3.0,8.0,74,0.00,,CLR,0.00,VWS V14.01,2013-09-23 13:10:00,
2013-09-23 08:14:00,56.8,48.6,30.06,South,173,3.0,10.0,74,0.00,,BKN025,0.00,VWS V14.01,2013-09-23 13:14:00,
2013-09-23 08:15:00,56.7,48.5,30.06,SE,144,0.0,10.0,74,0.00,,CLR,0.00,VWS V14.01,2013-09-23 13:15:00,
2013-09-23 08:19:00,56.7,48.5,30.06,East,97,5.0,5.0,74,0.00,,BKN025,0.00,VWS V14.01,2013-09-23 13:19:00,
2013-09-23 08:20:00,56.7,48.5,30.06,ESE,113,2.0,5.0,74,0.00,,CLR,0.00,VWS V14.01,2013-09-23 13:20:00,
2013-09-23 08:24:00,57.1,49.3,30.06,SE,127,1.0,10.0,75,0.00,,BKN025,0.00,VWS V14.01,2013-09-23 13:24:00,
2013-09-23 08:25:00,57.1,49.3,30.06,ESE,114,2.0,10.0,75,0.00,,CLR,0.00,VWS V14.01,2013-09-23 13:25:00,
2013-09-23 08:29:00,57.3,49.1,30.06,SE,135,0.0,7.0,74,0.00,,BKN025,0.00,VWS V14.01,2013-09-23 13:29:00,
2013-09-23 08:30:00,57.3,48.7,30.06,SSE,154,4.0,7.0,73,0.00,,CLR,0.00,VWS V14.01,2013-09-23 13:30:00,
2013-09-23 08:34:00,57.8,49.6,30.06,SE,125,4.0,8.0,74,0.00,,BKN025,0.00,VWS V14.01,2013-09-23 13:34:00,
2013-09-23 08:35:00,57.8,49.6,30.06,SE,129,4.0,8.0,74,0.00,,CLR,0.00,VWS V14.01,2013-09-23 13:35:00,
2013-09-23 08:39:00,58.4,49.4,30.06,SE,133,3.0,9.0,72,0.00,,BKN025,0.00,VWS V14.01,2013-09-23 13:39:00,
2013-09-23 08:40:00,58.4,49.4,30.06,SE,125,5.0,9.0,72,0.00,,CLR,0.00,VWS V14.01,2013-09-23 13:40:00,
2013-09-23 08:44:00,58.8,49.0,30.06,ESE,118,3.0,10.0,70,0.00,,BKN025,0.00,VWS V14.01,2013-09-23 13:44:00,
2013-09-23 08:45:00,58.8,49.0,30.06,ESE,121,2.0,10.0,70,0.00,,CLR,0.00,VWS V14.01,2013-09-23 13:45:00,
2013-09-23 08:49:00,58.6,49.2,30.06,East,100,3.0,8.0,71,0.00,,BKN025,0.00,VWS V14.01,2013-09-23 13:49:00,
2013-09-23 08:50:00,58.6,49.2,30.06,East,93,9.0,9.0,71,0.00,,CLR,0.00,VWS V14.01,2013-09-23 13:50:00,
2013-09-23 08:54:00,58.1,48.8,30.06,ESE,106,3.0,10.0,71,0.00,,BKN025,0.00,VWS V14.01,2013-09-23 13:54:00,
2013-09-23 08:55:00,58.1,48.8,30.06,ESE,110,3.0,8.0,71,0.00,,CLR,0.00,VWS V14.01,2013-09-23 13:55:00,
2013-09-23 08:59:00,58.1,49.1,30.06,SE,131,5.0,8.0,72,0.00,,BKN025,0.00,VWS V14.01,2013-09-23 13:59:00,
2013-09-23 09:00:00,58.2,49.2,30.06,ESE,119,5.0,8.0,72,0.00,,CLR,0.00,VWS V14.01,2013-09-23 14:00:00,
2013-09-23 09:05:00,58.4,49.0,30.06,SE,127,0.0,8.0,71,0.00,,BKN028,0.00,VWS V14.01,2013-09-23 14:05:00,
2013-09-23 09:10:00,58.2,48.8,30.06,SE,127,3.0,6.0,71,0.00,,BKN028,0.00,VWS V14.01,2013-09-23 14:10:00,
2013-09-23 09:15:00,58.1,49.5,30.07,SE,127,3.0,9.0,73,0.00,,BKN028,0.00,VWS V14.01,2013-09-23 14:15:00,
2013-09-23 09:20:00,58.3,49.7,30.06,SE,130,5.0,7.0,73,0.00,,BKN028,0.00,VWS V14.01,2013-09-23 14:20:00,
2013-09-23 09:25:00,59.1,49.7,30.06,SE,143,1.0,9.0,71,0.00,,BKN028,0.00,VWS V14.01,2013-09-23 14:25:00,
2013-09-23 09:30:00,59.3,49.5,30.06,ESE,103,7.0,9.0,70,0.00,,BKN028,0.00,VWS V14.01,2013-09-23 14:30:00,
2013-09-23 09:35:00,59.3,49.5,30.06,ESE,121,0.0,9.0,70,0.00,,BKN028,0.00,VWS V14.01,2013-09-23 14:35:00,
2013-09-23 09:40:00,58.8,49.4,30.07,SE,138,2.0,9.0,71,0.00,,BKN028,0.00,VWS V14.01,2013-09-23 14:40:00,
2013-09-23 09:45:00,58.3,49.3,30.07,SE,137,0.0,9.0,72,0.00,,BKN028,0.00,VWS V14.01,2013-09-23 14:45:00,
2013-09-23 09:50:00,58.5,49.1,30.07,ESE,118,3.0,9.0,71,0.00,,BKN028,0.00,VWS V14.01,2013-09-23 14:50:00,
2013-09-23 09:55:00,58.9,49.5,30.08,SSW,192,4.0,10.0,71,0.00,,BKN028,0.00,VWS V14.01,2013-09-23 14:55:00,
2013-09-23 10:00:00,58.6,49.2,30.08,ESE,109,2.0,8.0,71,0.00,,BKN028,0.00,VWS V14.01,2013-09-23 15:00:00,
2013-09-23 10:05:00,59.2,49.4,30.08,East,97,2.0,10.0,70,0.00,,BKN028,0.00,VWS V14.01,2013-09-23 15:05:00,
2013-09-23 10:10:00,59.3,49.5,30.08,SSE,154,1.0,9.0,70,0.00,,CLR,0.00,VWS V14.01,2013-09-23 15:10:00,
2013-09-23 10:11:00,59.2,49.4,30.08,ESE,116,4.0,9.0,70,0.00,,BKN028,0.00,VWS V14.01,2013-09-23 15:11:00,
2013-09-23 10:15:00,58.9,49.5,30.08,ENE,64,0.0,9.0,71,0.00,,CLR,0.00,VWS V14.01,2013-09-23 15:15:00,
2013-09-23 10:16:00,58.9,49.5,30.08,SE,124,3.0,7.0,71,0.00,,BKN028,0.00,VWS V14.01,2013-09-23 15:16:00,
2013-09-23 10:20:00,58.6,49.2,30.08,SE,125,0.0,8.0,71,0.00,,CLR,0.00,VWS V14.01,2013-09-23 15:20:00,
2013-09-23 10:21:00,58.6,49.2,30.08,SE,134,5.0,10.0,71,0.00,,BKN028,0.00,VWS V14.01,2013-09-23 15:21:00,
2013-09-23 10:25:00,58.4,49.4,30.08,East,82,0.0,10.0,72,0.00,,CLR,0.00,VWS V14.01,2013-09-23 15:25:00,
2013-09-23 10:26:00,58.4,49.4,30.08,SE,127,0.0,8.0,72,0.00,,BKN028,0.00,VWS V14.01,2013-09-23 15:26:00,
2013-09-23 10:30:00,58.6,50.0,30.08,SSE,152,0.0,5.0,73,0.00,,CLR,0.00,VWS V14.01,2013-09-23 15:30:00,
2013-09-23 10:31:00,58.7,49.7,30.08,ESE,107,0.0,5.0,72,0.00,,BKN028,0.00,VWS V14.01,2013-09-23 15:31:00,
2013-09-23 10:35:00,58.9,49.9,30.08,SE,126,4.0,8.0,72,0.00,,CLR,0.00,VWS V14.01,2013-09-23 15:35:00,
2013-09-23 10:36:00,59.0,50.0,30.08,ESE,123,0.0,8.0,72,0.00,,BKN028,0.00,VWS V14.01,2013-09-23 15:36:00,
2013-09-23 10:40:00,59.1,50.1,30.08,SE,125,0.0,10.0,72,0.00,,CLR,0.00,VWS V14.01,2013-09-23 15:40:00,
2013-09-23 10:41:00,59.2,50.2,30.08,SE,129,0.0,10.0,72,0.00,,BKN028,0.00,VWS V14.01,2013-09-23 15:41:00,
2013-09-23 10:45:00,59.1,49.3,30.08,ESE,120,3.0,10.0,70,0.00,,CLR,0.00,VWS V14.01,2013-09-23 15:45:00,
2013-09-23 10:46:00,59.0,49.2,30.08,SE,136,0.0,10.0,70,0.00,,BKN028,0.00,VWS V14.01,2013-09-23 15:46:00,
2013-09-23 10:50:00,59.0,49.6,30.08,SE,126,2.0,7.0,71,0.00,,CLR,0.00,VWS V14.01,2013-09-23 15:50:00,
2013-09-23 10:51:00,59.0,49.2,30.08,ESE,117,1.0,7.0,70,0.00,,BKN028,0.00,VWS V14.01,2013-09-23 15:51:00,
2013-09-23 10:55:00,59.2,49.8,30.08,ESE,117,0.0,7.0,71,0.00,,CLR,0.00,VWS V14.01,2013-09-23 15:55:00,
2013-09-23 10:56:00,59.4,50.0,30.08,South,188,0.0,7.0,71,0.00,,BKN028,0.00,VWS V14.01,2013-09-23 15:56:00,
2013-09-23 11:00:00,59.7,49.9,30.08,ESE,107,5.0,8.0,70,0.00,,CLR,0.00,VWS V14.01,2013-09-23 16:00:00,
2013-09-23 11:01:00,59.7,49.5,30.08,ESE,110,0.0,8.0,69,0.00,,BKN028,0.00,VWS V14.01,2013-09-23 16:01:00,
2013-09-23 11:05:00,59.8,49.6,30.08,SE,131,2.0,8.0,69,0.00,,CLR,0.00,VWS V14.01,2013-09-23 16:05:00,
2013-09-23 11:06:00,59.8,49.2,30.08,ESE,117,0.0,8.0,68,0.00,,BKN028,0.00,VWS V14.01,2013-09-23 16:06:00,
2013-09-23 11:10:00,59.9,50.1,30.08,SE,128,0.0,9.0,70,0.00,,CLR,0.00,VWS V14.01,2013-09-23 16:10:00,
2013-09-23 11:11:00,60.0,50.2,30.08,ESE,119,0.0,9.0,70,0.00,,BKN028,0.00,VWS V14.01,2013-09-23 16:11:00,
2013-09-23 11:15:00,60.0,49.8,30.08,ESE,107,0.0,9.0,69,0.00,,CLR,0.00,VWS V14.01,2013-09-23 16:15:00,
2013-09-23 11:16:00,59.9,49.7,30.08,East,94,0.0,9.0,69,0.00,,BKN028,0.00,VWS V14.01,2013-09-23 16:16:00,
2013-09-23 11:20:00,60.1,50.3,30.08,SE,128,3.0,8.0,70,0.00,,CLR,0.00,VWS V14.01,2013-09-23 16:20:00,
2013-09-23 11:21:00,60.2,50.0,30.08,SE,140,0.0,8.0,69,0.00,,BKN028,0.00,VWS V14.01,2013-09-23 16:21:00,
2013-09-23 11:25:00,60.3,49.7,30.08,ESE,116,3.0,9.0,68,0.00,,CLR,0.00,VWS V14.01,2013-09-23 16:25:00,
2013-09-23 11:26:00,60.2,49.6,30.08,East,97,6.0,9.0,68,0.00,,BKN028,0.00,VWS V14.01,2013-09-23 16:26:00,
2013-09-23 11:30:00,60.0,49.8,30.08,East,94,0.0,8.0,69,0.00,,CLR,0.00,VWS V14.01,2013-09-23 16:30:00,
2013-09-23 11:31:00,60.2,50.0,30.08,ESE,117,2.0,8.0,69,0.00,,BKN028,0.00,VWS V14.01,2013-09-23 16:31:00,
2013-09-23 11:35:00,60.7,50.5,30.08,SE,128,0.0,9.0,69,0.00,,CLR,0.00,VWS V14.01,2013-09-23 16:35:00,
2013-09-23 11:36:00,60.8,50.6,30.08,SE,131,0.0,9.0,69,0.00,,BKN028,0.00,VWS V14.01,2013-09-23 16:36:00,
2013-09-23 11:40:00,61.1,50.5,30.08,NE,49,0.0,3.0,68,0.00,,CLR,0.00,VWS V14.01,2013-09-23 16:40:00,
2013-09-23 11:41:00,61.1,49.7,30.08,East,90,2.0,6.0,66,0.00,,BKN028,0.00,VWS V14.01,2013-09-23 16:41:00,
2013-09-23 11:45:00,61.0,50.0,30.08,SE,124,0.0,6.0,67,0.00,,CLR,0.00,VWS V14.01,2013-09-23 16:45:00,
2013-09-23 11:47:00,60.9,49.9,30.08,ESE,123,0.0,6.0,67,0.00,,BKN028,0.00,VWS V14.01,2013-09-23 16:47:00,
2013-09-23 11:50:00,61.0,50.0,30.08,SE,140,0.0,5.0,67,0.00,,CLR,0.00,VWS V14.01,2013-09-23 16:50:00,
2013-09-23 11:52:00,61.0,50.0,30.08,SE,127,0.0,5.0,67,0.00,,BKN028,0.00,VWS V14.01,2013-09-23 16:52:00,
2013-09-23 11:55:00,61.0,49.6,30.08,ESE,119,5.0,7.0,66,0.00,,CLR,0.00,VWS V14.01,2013-09-23 16:55:00,
2013-09-23 11:57:00,60.9,49.9,30.08,ESE,105,2.0,7.0,67,0.00,,BKN028,0.00,VWS V14.01,2013-09-23 16:57:00,
2013-09-23 12:00:00,61.0,50.4,30.08,East,100,6.0,6.0,68,0.00,,CLR,0.00,VWS V14.01,2013-09-23 17:00:00,
2013-09-23 12:02:00,61.4,50.4,30.08,SE,124,2.0,8.0,67,0.00,,BKN030,0.00,VWS V14.01,2013-09-23 17:02:00,
2013-09-23 12:05:00,61.6,49.3,30.08,SE,129,0.0,8.0,64,0.00,,CLR,0.00,VWS V14.01,2013-09-23 17:05:00,
2013-09-23 12:07:00,61.8,49.9,30.08,ESE,116,8.0,8.0,65,0.00,,BKN030,0.00,VWS V14.01,2013-09-23 17:07:00,
2013-09-23 12:10:00,61.9,49.6,30.08,ESE,119,4.0,8.0,64,0.00,,CLR,0.00,VWS V14.01,2013-09-23 17:10:00,
2013-09-23 12:12:00,61.9,49.6,30.08,SSE,148,5.0,7.0,64,0.00,,BKN030,0.00,VWS V14.01,2013-09-23 17:12:00,
2013-09-23 12:15:00,61.7,50.2,30.08,ESE,102,1.0,9.0,66,0.00,,CLR,0.00,VWS V14.01,2013-09-23 17:15:00,
2013-09-23 12:17:00,61.7,50.2,30.08,SE,133,0.0,8.0,66,0.00,,BKN030,0.00,VWS V14.01,2013-09-23 17:17:00,
2013-09-23 12:20:00,61.5,49.6,30.07,ESE,122,3.0,8.0,65,0.00,,CLR,0.00,VWS V14.01,2013-09-23 17:20:00,
2013-09-23 12:22:00,61.2,49.8,30.07,SE,124,0.0,9.0,66,0.00,,BKN030,0.00,VWS V14.01,2013-09-23 17:22:00,
2013-09-23 12:25:00,61.1,50.1,30.07,SE,130,0.0,8.0,67,0.00,,CLR,0.00,VWS V14.01,2013-09-23 17:25:00,
2013-09-23 12:27:00,61.1,49.7,30.07,SE,130,4.0,10.0,66,0.00,,BKN030,0.00,VWS V14.01,2013-09-23 17:27:00,
2013-09-23 12:30:00,61.1,50.1,30.07,SE,136,0.0,10.0,67,0.00,,CLR,0.00,VWS V14.01,2013-09-23 17:30:00,
2013-09-23 12:32:00,61.3,50.7,30.07,East,90,8.0,8.0,68,0.00,,BKN028,0.00,VWS V14.01,2013-09-23 17:32:00,
2013-09-23 12:35:00,61.5,50.5,30.07,SE,146,3.0,8.0,67,0.00,,CLR,0.00,VWS V14.01,2013-09-23 17:35:00,
2013-09-23 12:37:00,61.8,50.7,30.07,SE,130,0.0,8.0,67,0.00,,BKN028,0.00,VWS V14.01,2013-09-23 17:37:00,
2013-09-23 12:40:00,62.0,50.5,30.07,South,184,2.0,8.0,66,0.00,,CLR,0.00,VWS V14.01,2013-09-23 17:40:00,
2013-09-23 12:42:00,61.9,50.4,30.07,SSE,147,2.0,8.0,66,0.00,,BKN028,0.00,VWS V14.01,2013-09-23 17:42:00,
2013-09-23 12:45:00,62.0,50.9,30.07,SE,134,4.0,7.0,67,0.00,,CLR,0.00,VWS V14.01,2013-09-23 17:45:00,
2013-09-23 12:47:00,62.0,50.5,30.07,NE,52,0.0,9.0,66,0.00,,BKN028,0.00,VWS V14.01,2013-09-23 17:47:00,
2013-09-23 12:50:00,62.0,50.5,30.07,ESE,113,4.0,9.0,66,0.00,,CLR,0.00,VWS V14.01,2013-09-23 17:50:00,
2013-09-23 12:52:00,62.0,50.9,30.07,East,83,10.0,10.0,67,0.00,,BKN028,0.00,VWS V14.01,2013-09-23 17:52:00,
2013-09-23 12:55:00,61.8,50.7,30.07,SE,138,2.0,11.0,67,0.00,,CLR,0.00,VWS V14.01,2013-09-23 17:55:00,
2013-09-23 12:57:00,61.7,50.6,30.07,ESE,110,2.0,8.0,67,0.00,,BKN028,0.00,VWS V14.01,2013-09-23 17:57:00,
2013-09-23 13:00:00,61.6,50.5,30.07,SE,126,4.0,8.0,67,0.00,,CLR,0.00,VWS V14.01,2013-09-23 18:00:00,
2013-09-23 13:03:00,61.6,51.0,30.07,ESE,114,0.0,6.0,68,0.00,,BKN250,0.00,VWS V14.01,2013-09-23 18:03:00,
2013-09-23 13:05:00,61.7,51.0,30.07,East,85,6.0,10.0,68,0.00,,CLR,0.00,VWS V14.01,2013-09-23 18:05:00,
2013-09-23 13:08:00,61.6,50.5,30.07,SE,134,7.0,9.0,67,0.00,,BKN250,0.00,VWS V14.01,2013-09-23 18:08:00,
2013-09-23 13:10:00,61.3,50.3,30.07,ESE,111,4.0,9.0,67,0.00,,CLR,0.00,VWS V14.01,2013-09-23 18:10:00,
2013-09-23 13:13:00,60.7,49.7,30.06,ESE,121,4.0,8.0,67,0.00,,BKN250,0.00,VWS V14.01,2013-09-23 18:13:00,
2013-09-23 13:15:00,60.6,50.0,30.06,ESE,121,0.0,7.0,68,0.00,,CLR,0.00,VWS V14.01,2013-09-23 18:15:00,
2013-09-23 13:18:00,60.9,50.7,30.06,East,86,0.0,9.0,69,0.00,,BKN250,0.00,VWS V14.01,2013-09-23 18:18:00,
2013-09-23 13:20:00,61.1,50.5,30.06,East,96,0.0,9.0,68,0.00,,CLR,0.00,VWS V14.01,2013-09-23 18:20:00,
2013-09-23 13:23:00,61.6,50.5,30.06,ESE,113,0.0,7.0,67,0.00,,BKN250,0.00,VWS V14.01,2013-09-23 18:23:00,
2013-09-23 13:25:00,61.7,50.6,30.06,North,360,0.0,8.0,67,0.00,,CLR,0.00,VWS V14.01,2013-09-23 18:25:00,
2013-09-23 13:28:00,61.8,50.7,30.06,SE,130,4.0,8.0,67,0.00,,BKN250,0.00,VWS V14.01,2013-09-23 18:28:00,
2013-09-23 13:30:00,61.7,50.2,30.06,East,94,0.0,8.0,66,0.00,,CLR,0.00,VWS V14.01,2013-09-23 18:30:00,
2013-09-23 13:33:00,61.6,50.1,30.06,East,80,11.0,11.0,66,0.00,,BKN250,0.00,VWS V14.01,2013-09-23 18:33:00,
2013-09-23 13:35:00,61.4,50.4,30.06,ESE,103,3.0,11.0,67,0.00,,CLR,0.00,VWS V14.01,2013-09-23 18:35:00,
2013-09-23 13:38:00,61.3,49.9,30.06,East,101,0.0,9.0,66,0.00,,BKN250,0.00,VWS V14.01,2013-09-23 18:38:00,
2013-09-23 13:40:00,61.2,50.2,30.05,ESE,118,5.0,9.0,67,0.00,,CLR,0.00,VWS V14.01,2013-09-23 18:40:00,
2013-09-23 13:43:00,61.2,50.2,30.05,ENE,78,3.0,12.0,67,0.00,,BKN250,0.00,VWS V14.01,2013-09-23 18:43:00,
2013-09-23 13:45:00,61.1,49.7,30.05,East,86,5.0,14.0,66,0.00,,CLR,0.00,VWS V14.01,2013-09-23 18:45:00,
2013-09-23 13:48:00,60.9,49.9,30.05,ESE,122,1.0,11.0,67,0.00,,BKN250,0.00,VWS V14.01,2013-09-23 18:48:00,
2013-09-23 13:50:00,60.9,50.3,30.05,East,98,6.0,9.0,68,0.00,,CLR,0.00,VWS V14.01,2013-09-23 18:50:00,
2013-09-23 13:53:00,60.9,49.9,30.05,ESE,114,0.0,9.0,67,0.00,,BKN250,0.00,VWS V14.01,2013-09-23 18:53:00,
2013-09-23 13:55:00,61.1,50.1,30.05,SE,139,1.0,8.0,67,0.00,,CLR,0.00,VWS V14.01,2013-09-23 18:55:00,
2013-09-23 13:58:00,61.2,50.2,30.05,SE,132,2.0,5.0,67,0.00,,BKN250,0.00,VWS V14.01,2013-09-23 18:58:00,
2013-09-23 14:00:00,61.2,50.2,30.05,SE,128,6.0,6.0,67,0.00,,CLR,0.00,VWS V14.01,2013-09-23 19:00:00,
2013-09-23 14:03:00,61.0,50.0,30.05,ESE,116,0.0,9.0,67,0.00,,BKN250,0.00,VWS V14.01,2013-09-23 19:03:00,
2013-09-23 14:05:00,61.0,50.0,30.05,East,97,6.0,9.0,67,0.00,,CLR,0.00,VWS V14.01,2013-09-23 19:05:00,
2013-09-23 14:08:00,60.6,49.6,30.05,East,84,2.0,9.0,67,0.00,,BKN250,0.00,VWS V14.01,2013-09-23 19:08:00,
2013-09-23 14:10:00,60.5,49.5,30.05,ENE,78,5.0,9.0,67,0.00,,CLR,0.00,VWS V14.01,2013-09-23 19:10:00,
2013-09-23 14:13:00,60.3,49.3,30.05,ESE,107,0.0,10.0,67,0.00,,BKN250,0.00,VWS V14.01,2013-09-23 19:13:00,
2013-09-23 14:15:00,60.2,49.2,30.05,East,96,2.0,10.0,67,0.00,,CLR,0.00,VWS V14.01,2013-09-23 19:15:00,
2013-09-23 14:18:00,60.2,49.6,30.05,East,98,3.0,6.0,68,0.00,,BKN250,0.00,VWS V14.01,2013-09-23 19:18:00,
2013-09-23 14:20:00,60.3,49.7,30.05,SE,124,3.0,6.0,68,0.00,,CLR,0.00,VWS V14.01,2013-09-23 19:20:00,
2013-09-23 14:23:00,60.4,49.8,30.05,SE,142,6.0,9.0,68,0.00,,BKN250,0.00,VWS V14.01,2013-09-23 19:23:00,
2013-09-23 14:25:00,60.4,49.4,30.05,SE,138,2.0,9.0,67,0.00,,CLR,0.00,VWS V14.01,2013-09-23 19:25:00,
2013-09-23 14:28:00,60.4,49.4,30.05,ENE,75,4.0,9.0,67,0.00,,BKN250,0.00,VWS V14.01,2013-09-23 19:28:00,
2013-09-23 14:30:00,60.3,49.3,30.04,ESE,119,0.0,9.0,67,0.00,,CLR,0.00,VWS V14.01,2013-09-23 19:30:00,
2013-09-23 14:34:00,60.4,49.4,30.04,East,90,0.0,10.0,67,0.00,,BKN250,0.00,VWS V14.01,2013-09-23 19:34:00,
2013-09-23 14:35:00,60.4,49.4,30.04,East,94,3.0,10.0,67,0.00,,CLR,0.00,VWS V14.01,2013-09-23 19:35:00,
2013-09-23 14:39:00,60.3,49.3,30.04,East,89,0.0,9.0,67,0.00,,BKN250,0.00,VWS V14.01,2013-09-23 19:39:00,
2013-09-23 14:40:00,60.4,49.8,30.04,ENE,66,1.0,9.0,68,0.00,,CLR,0.00,VWS V14.01,2013-09-23 19:40:00,
2013-09-23 14:44:00,60.3,49.3,30.04,SE,128,2.0,8.0,67,0.00,,BKN250,0.00,VWS V14.01,2013-09-23 19:44:00,
2013-09-23 14:45:00,60.3,49.3,30.04,ESE,105,2.0,6.0,67,0.00,,CLR,0.00,VWS V14.01,2013-09-23 19:45:00,
2013-09-23 14:49:00,60.0,49.0,30.04,ESE,108,0.0,9.0,67,0.00,,BKN250,0.00,VWS V14.01,2013-09-23 19:49:00,
2013-09-23 14:50:00,60.0,49.4,30.04,East,92,0.0,9.0,68,0.00,,CLR,0.00,VWS V14.01,2013-09-23 19:50:00,
2013-09-23 14:54:00,60.3,49.3,30.04,East,92,0.0,6.0,67,0.00,,BKN250,0.00,VWS V14.01,2013-09-23 19:54:00,
2013-09-23 14:55:00,60.3,49.7,30.04,East,98,0.0,6.0,68,0.00,,CLR,0.00,VWS V14.01,2013-09-23 19:55:00,
2013-09-23 14:59:00,60.1,49.1,30.04,East,94,0.0,8.0,67,0.00,,BKN250,0.00,VWS V14.01,2013-09-23 19:59:00,
2013-09-23 15:00:00,60.1,49.1,30.04,SE,135,3.0,7.0,67,0.00,,CLR,0.00,VWS V14.01,2013-09-23 20:00:00,
2013-09-23 15:04:00,59.6,48.6,30.04,ESE,110,8.0,8.0,67,0.00,,BKN250,0.00,VWS V14.01,2013-09-23 20:04:00,
2013-09-23 15:05:00,59.6,48.6,30.04,East,96,7.0,10.0,67,0.00,,CLR,0.00,VWS V14.01,2013-09-23 20:05:00,
2013-09-23 15:09:00,59.4,49.2,30.04,East,96,6.0,10.0,69,0.00,,BKN250,0.00,VWS V14.01,2013-09-23 20:09:00,
2013-09-23 15:10:00,59.4,49.2,30.04,East,101,0.0,10.0,69,0.00,,CLR,0.00,VWS V14.01,2013-09-23 20:10:00,
2013-09-23 15:14:00,59.5,48.9,30.03,East,96,0.0,9.0,68,0.00,,BKN250,0.00,VWS V14.01,2013-09-23 20:14:00,
2013-09-23 15:15:00,59.5,48.9,30.03,East,97,0.0,9.0,68,0.00,,CLR,0.00,VWS V14.01,2013-09-23 20:15:00,
2013-09-23 15:19:00,59.7,48.7,30.03,East,92,7.0,9.0,67,0.00,,BKN250,0.00,VWS V14.01,2013-09-23 20:19:00,
2013-09-23 15:20:00,59.7,48.7,30.03,ENE,67,3.0,9.0,67,0.00,,CLR,0.00,VWS V14.01,2013-09-23 20:20:00,
2013-09-23 15:24:00,59.5,49.3,30.03,ESE,108,3.0,8.0,69,0.00,,BKN250,0.00,VWS V14.01,2013-09-23 20:24:00,
2013-09-23 15:25:00,59.5,49.3,30.03,ESE,108,2.0,8.0,69,0.00,,CLR,0.00,VWS V14.01,2013-09-23 20:25:00,
2013-09-23 15:29:00,59.2,49.0,30.03,East,97,3.0,9.0,69,0.00,,BKN250,0.00,VWS V14.01,2013-09-23 20:29:00,
2013-09-23 15:30:00,59.2,49.0,30.03,East,98,3.0,9.0,69,0.00,,CLR,0.00,VWS V14.01,2013-09-23 20:30:00,
2013-09-23 15:34:00,59.1,49.0,30.03,SE,138,0.0,10.0,69,0.00,,BKN250,0.00,VWS V14.01,2013-09-23 20:34:00,
2013-09-23 15:35:00,59.1,49.0,30.03,SE,137,0.0,10.0,69,0.00,,CLR,0.00,VWS V14.01,2013-09-23 20:35:00,
2013-09-23 15:39:00,59.5,49.3,30.03,ESE,103,0.0,5.0,69,0.00,,BKN250,0.00,VWS V14.01,2013-09-23 20:39:00,
2013-09-23 15:40:00,59.5,49.3,30.03,ESE,103,0.0,5.0,69,0.00,,CLR,0.00,VWS V14.01,2013-09-23 20:40:00,
2013-09-23 15:44:00,60.1,49.5,30.03,ESE,115,4.0,9.0,68,0.00,,BKN250,0.00,VWS V14.01,2013-09-23 20:44:00,
2013-09-23 15:45:00,60.1,49.5,30.03,ESE,115,4.0,9.0,68,0.00,,CLR,0.00,VWS V14.01,2013-09-23 20:45:00,
2013-09-23 15:49:00,60.2,49.6,30.03,SE,146,1.0,4.0,68,0.00,,BKN250,0.00,VWS V14.01,2013-09-23 20:49:00,
2013-09-23 15:50:00,60.2,49.6,30.03,SE,146,1.0,4.0,68,0.00,,CLR,0.00,VWS V14.01,2013-09-23 20:50:00,
2013-09-23 15:54:00,60.4,49.4,30.03,East,86,0.0,6.0,67,0.00,,BKN250,0.00,VWS V14.01,2013-09-23 20:54:00,
2013-09-23 15:55:00,60.4,49.4,30.03,East,86,0.0,6.0,67,0.00,,CLR,0.00,VWS V14.01,2013-09-23 20:55:00,
2013-09-23 16:00:00,60.5,49.5,30.03,ESE,112,0.0,7.0,67,0.00,,BKN250,0.00,VWS V14.01,2013-09-23 21:00:00,
2013-09-23 16:05:00,60.6,50.0,30.03,ESE,121,0.0,4.0,68,0.00,,BKN250,0.00,VWS V14.01,2013-09-23 21:05:00,
2013-09-23 16:10:00,60.7,49.7,30.03,ESE,123,0.0,8.0,67,0.00,,BKN250,0.00,VWS V14.01,2013-09-23 21:10:00,
2013-09-23 16:15:00,60.2,49.6,30.03,SE,131,2.0,5.0,68,0.00,,BKN250,0.00,VWS V14.01,2013-09-23 21:15:00,
2013-09-23 16:20:00,59.8,49.6,30.03,ESE,115,0.0,7.0,69,0.00,,BKN250,0.00,VWS V14.01,2013-09-23 21:20:00,
2013-09-23 16:25:00,59.8,49.6,30.03,SE,127,0.0,0.0,69,0.00,,BKN250,0.00,VWS V14.01,2013-09-23 21:25:00,
2013-09-23 16:30:00,59.7,49.5,30.03,East,97,5.0,6.0,69,0.00,,BKN250,0.00,VWS V14.01,2013-09-23 21:30:00,
2013-09-23 16:35:00,59.6,49.8,30.03,East,82,2.0,4.0,70,0.00,,BKN250,0.00,VWS V14.01,2013-09-23 21:35:00,
2013-09-23 16:40:00,59.8,50.0,30.03,East,101,0.0,4.0,70,0.00,,BKN250,0.00,VWS V14.01,2013-09-23 21:40:00,
2013-09-23 16:45:00,59.8,50.0,30.02,SE,129,0.0,7.0,70,0.00,,BKN250,0.00,VWS V14.01,2013-09-23 21:45:00,
2013-09-23 16:50:00,59.5,50.1,30.02,SE,126,3.0,10.0,71,0.00,,BKN250,0.00,VWS V14.01,2013-09-23 21:50:00,
2013-09-23 16:55:00,59.3,49.9,30.02,ESE,111,2.0,4.0,71,0.00,,BKN250,0.00,VWS V14.01,2013-09-23 21:55:00,
2013-09-23 17:00:00,59.1,49.7,30.02,SE,124,0.0,10.0,71,0.00,,BKN250,0.00,VWS V14.01,2013-09-23 22:00:00,
2013-09-23 17:05:00,59.1,50.1,30.02,ESE,113,0.0,9.0,72,0.00,,BKN250,0.00,VWS V14.01,2013-09-23 22:05:00,
2013-09-23 17:10:00,59.6,50.6,30.02,SE,144,2.0,9.0,72,0.00,,BKN250,0.00,VWS V14.01,2013-09-23 22:10:00,
2013-09-23 17:15:00,60.0,51.0,30.02,East,98,5.0,10.0,72,0.00,,CLR,0.00,VWS V14.01,2013-09-23 22:15:00,
2013-09-23 17:16:00,60.0,50.6,30.02,ESE,113,0.0,10.0,71,0.00,,BKN250,0.00,VWS V14.01,2013-09-23 22:16:00,
2013-09-23 17:20:00,60.1,50.7,30.02,SE,124,0.0,11.0,71,0.00,,CLR,0.00,VWS V14.01,2013-09-23 22:20:00,
2013-09-23 17:21:00,60.1,50.7,30.02,ESE,103,9.0,11.0,71,0.00,,BKN250,0.00,VWS V14.01,2013-09-23 22:21:00,
2013-09-23 17:25:00,60.2,50.8,30.02,SE,128,1.0,9.0,71,0.00,,CLR,0.00,VWS V14.01,2013-09-23 22:25:00,
2013-09-23 17:26:00,60.3,50.9,30.02,SE,142,0.0,7.0,71,0.00,,BKN250,0.00,VWS V14.01,2013-09-23 22:26:00,
2013-09-23 17:30:00,60.2,50.8,30.02,SE,127,0.0,9.0,71,0.00,,CLR,0.00,VWS V14.01,2013-09-23 22:30:00,
2013-09-23 17:31:00,60.3,50.9,30.02,ESE,115,0.0,9.0,71,0.00,,BKN250,0.00,VWS V14.01,2013-09-23 22:31:00,
2013-09-23 17:35:00,60.3,50.9,30.02,East,82,0.0,11.0,71,0.00,,CLR,0.00,VWS V14.01,2013-09-23 22:35:00,
2013-09-23 17:36:00,60.3,50.9,30.02,SE,124,4.0,11.0,71,0.00,,BKN250,0.00,VWS V14.01,2013-09-23 22:36:00,
2013-09-23 17:40:00,60.4,51.0,30.02,ESE,112,9.0,10.0,71,0.00,,CLR,0.00,VWS V14.01,2013-09-23 22:40:00,
2013-09-23 17:41:00,60.4,50.6,30.02,ESE,107,4.0,10.0,70,0.00,,BKN250,0.00,VWS V14.01,2013-09-23 22:41:00,
2013-09-23 17:45:00,60.3,50.5,30.02,ESE,115,0.0,7.0,70,0.00,,CLR,0.00,VWS V14.01,2013-09-23 22:45:00,
2013-09-23 17:46:00,60.3,50.9,30.02,ESE,113,7.0,8.0,71,0.00,,BKN250,0.00,VWS V14.01,2013-09-23 22:46:00,
2013-09-23 17:50:00,60.1,50.7,30.01,East,97,5.0,8.0,71,0.00,,CLR,0.00,VWS V14.01,2013-09-23 22:50:00,
2013-09-23 17:51:00,60.0,51.0,30.02,ESE,112,0.0,8.0,72,0.00,,BKN250,0.00,VWS V14.01,2013-09-23 22:51:00,
2013-09-23 17:55:00,60.0,51.0,30.01,ESE,110,0.0,4.0,72,0.00,,CLR,0.00,VWS V14.01,2013-09-23 22:55:00,
2013-09-23 17:56:00,59.9,50.9,30.01,ESE,109,0.0,4.0,72,0.00,,BKN250,0.00,VWS V14.01,2013-09-23 22:56:00,
2013-09-23 18:00:00,59.8,51.1,30.01,SE,146,0.0,8.0,73,0.00,,CLR,0.00,VWS V14.01,2013-09-23 23:00:00,
2013-09-23 18:01:00,59.8,50.8,30.01,SE,128,3.0,8.0,72,0.00,,BKN250,0.00,VWS V14.01,2013-09-23 23:01:00,
2013-09-23 18:05:00,59.8,50.8,30.01,ESE,111,7.0,8.0,72,0.00,,CLR,0.00,VWS V14.01,2013-09-23 23:05:00,
2013-09-23 18:06:00,59.7,50.7,30.01,SE,138,1.0,8.0,72,0.00,,BKN250,0.00,VWS V14.01,2013-09-23 23:06:00,
2013-09-23 18:10:00,59.6,50.6,30.01,SE,129,1.0,8.0,72,0.00,,CLR,0.00,VWS V14.01,2013-09-23 23:10:00,
2013-09-23 18:11:00,59.5,50.5,30.01,East,80,0.0,5.0,72,0.00,,BKN250,0.00,VWS V14.01,2013-09-23 23:11:00,
2013-09-23 18:15:00,59.5,50.8,30.01,ESE,116,4.0,7.0,73,0.00,,CLR,0.00,VWS V14.01,2013-09-23 23:15:00,
2013-09-23 18:16:00,59.4,50.8,30.01,East,90,8.0,8.0,73,0.00,,BKN250,0.00,VWS V14.01,2013-09-23 23:16:00,
2013-09-23 18:20:00,59.3,50.7,30.01,ESE,123,2.0,8.0,73,0.00,,CLR,0.00,VWS V14.01,2013-09-23 23:20:00,
2013-09-23 18:21:00,59.4,50.8,30.01,ESE,119,1.0,7.0,73,0.00,,BKN250,0.00,VWS V14.01,2013-09-23 23:21:00,
2013-09-23 18:25:00,59.3,51.0,30.01,ESE,112,1.0,7.0,74,0.00,,CLR,0.00,VWS V14.01,2013-09-23 23:25:00,
2013-09-23 18:26:00,59.2,50.9,30.01,ESE,117,5.0,7.0,74,0.00,,BKN250,0.00,VWS V14.01,2013-09-23 23:26:00,
2013-09-23 18:30:00,59.1,50.8,30.01,SE,141,4.0,7.0,74,0.00,,CLR,0.00,VWS V14.01,2013-09-23 23:30:00,
2013-09-23 18:31:00,59.0,50.7,30.01,ESE,112,2.0,7.0,74,0.00,,BKN250,0.00,VWS V14.01,2013-09-23 23:31:00,
2013-09-23 18:35:00,58.8,50.5,30.01,SE,125,0.0,9.0,74,0.00,,CLR,0.00,VWS V14.01,2013-09-23 23:35:00,
2013-09-23 18:36:00,58.8,50.9,30.01,ESE,119,0.0,9.0,75,0.00,,BKN250,0.00,VWS V14.01,2013-09-23 23:36:00,
2013-09-23 18:40:00,58.7,51.2,30.01,ESE,119,0.0,3.0,76,0.00,,CLR,0.00,VWS V14.01,2013-09-23 23:40:00,
2013-09-23 18:41:00,58.7,51.2,30.01,ESE,107,1.0,7.0,76,0.00,,BKN250,0.00,VWS V14.01,2013-09-23 23:41:00,
2013-09-23 18:45:00,58.7,51.2,30.01,East,98,9.0,9.0,76,0.00,,CLR,0.00,VWS V14.01,2013-09-23 23:45:00,
2013-09-23 18:47:00,58.6,51.1,30.01,ESE,107,1.0,9.0,76,0.00,,BKN250,0.00,VWS V14.01,2013-09-23 23:47:00,
2013-09-23 18:50:00,58.5,51.0,30.01,SSE,165,0.0,7.0,76,0.00,,CLR,0.00,VWS V14.01,2013-09-23 23:50:00,
2013-09-23 18:52:00,58.4,50.9,30.01,East,98,0.0,7.0,76,0.00,,BKN250,0.00,VWS V14.01,2013-09-23 23:52:00,
2013-09-23 18:55:00,58.4,50.9,30.01,ESE,121,0.0,7.0,76,0.00,,CLR,0.00,VWS V14.01,2013-09-23 23:55:00,
2013-09-23 18:57:00,58.4,50.9,30.01,SE,131,2.0,4.0,76,0.00,,BKN250,0.00,VWS V14.01,2013-09-23 23:57:00,
2013-09-23 19:00:00,58.3,51.1,30.01,ESE,112,7.0,7.0,77,0.00,,CLR,0.00,VWS V14.01,2013-09-24 00:00:00,
2013-09-23 19:02:00,58.4,51.2,30.01,SE,132,0.0,7.0,77,0.00,,FEW250,0.00,VWS V14.01,2013-09-24 00:02:00,
2013-09-23 19:05:00,58.4,51.2,30.01,ESE,118,3.0,5.0,77,0.00,,CLR,0.00,VWS V14.01,2013-09-24 00:05:00,
2013-09-23 19:07:00,58.4,51.2,30.01,SE,126,0.0,5.0,77,0.00,,FEW250,0.00,VWS V14.01,2013-09-24 00:07:00,
2013-09-23 19:10:00,58.5,51.3,30.01,East,98,0.0,4.0,77,0.00,,CLR,0.00,VWS V14.01,2013-09-24 00:10:00,
2013-09-23 19:12:00,58.5,51.7,30.01,SE,125,0.0,5.0,78,0.00,,FEW250,0.00,VWS V14.01,2013-09-24 00:12:00,
2013-09-23 19:15:00,58.5,51.3,30.01,ESE,123,0.0,7.0,77,0.00,,CLR,0.00,VWS V14.01,2013-09-24 00:15:00,
2013-09-23 19:18:00,58.5,51.3,30.01,ESE,112,0.0,7.0,77,0.00,,FEW250,0.00,VWS V14.01,2013-09-24 00:18:00,
2013-09-23 19:20:00,58.5,51.0,30.01,SE,130,0.0,7.0,76,0.00,,CLR,0.00,VWS V14.01,2013-09-24 00:20:00,
2013-09-23 19:23:00,58.6,51.1,30.01,SE,146,2.0,8.0,76,0.00,,FEW250,0.00,VWS V14.01,2013-09-24 00:23:00,
2013-09-23 19:25:00,58.7,51.5,30.01,ESE,114,2.0,7.0,77,0.00,,CLR,0.00,VWS V14.01,2013-09-24 00:25:00,
2013-09-23 19:28:00,58.7,51.5,30.01,ESE,102,0.0,7.0,77,0.00,,FEW250,0.00,VWS V14.01,2013-09-24 00:28:00,
2013-09-23 19:30:00,58.8,51.6,30.01,ESE,116,5.0,7.0,77,0.00,,CLR,0.00,VWS V14.01,2013-09-24 00:30:00,
2013-09-23 19:33:00,58.9,51.7,30.01,ESE,106,4.0,8.0,77,0.00,,FEW250,0.00,VWS V14.01,2013-09-24 00:33:00,
2013-09-23 19:35:00,58.9,51.7,30.01,ESE,113,1.0,8.0,77,0.00,,CLR,0.00,VWS V14.01,2013-09-24 00:35:00,
2013-09-23 19:38:00,59.0,51.5,30.01,SE,138,3.0,8.0,76,0.00,,FEW250,0.00,VWS V14.01,2013-09-24 00:38:00,
2013-09-23 19:40:00,59.0,51.5,30.01,ESE,103,2.0,8.0,76,0.00,,CLR,0.00,VWS V14.01,2013-09-24 00:40:00,
2013-09-23 19:43:00,59.1,51.9,30.01,ESE,112,0.0,4.0,77,0.00,,FEW250,0.00,VWS V14.01,2013-09-24 00:43:00,
2013-09-23 19:45:00,59.1,51.9,30.01,SE,140,3.0,7.0,77,0.00,,CLR,0.00,VWS V14.01,2013-09-24 00:45:00,
2013-09-23 19:48:00,59.1,51.9,30.01,ESE,117,0.0,8.0,77,0.00,,FEW250,0.00,VWS V14.01,2013-09-24 00:48:00,
2013-09-23 19:50:00,59.2,52.0,30.01,ESE,109,0.0,7.0,77,0.00,,CLR,0.00,VWS V14.01,2013-09-24 00:50:00,
2013-09-23 19:53:00,59.2,52.0,30.01,ESE,102,0.0,9.0,77,0.00,,FEW250,0.00,VWS V14.01,2013-09-24 00:53:00,
2013-09-23 19:55:00,59.2,52.0,30.01,ESE,107,4.0,9.0,77,0.00,,CLR,0.00,VWS V14.01,2013-09-24 00:55:00,
2013-09-23 19:58:00,59.3,52.1,30.01,ESE,109,0.0,10.0,77,0.00,,FEW250,0.00,VWS V14.01,2013-09-24 00:58:00,
2013-09-23 20:00:00,59.3,52.5,30.01,SE,128,0.0,10.0,78,0.00,,CLR,0.00,VWS V14.01,2013-09-24 01:00:00,
2013-09-23 20:03:00,59.3,52.1,30.01,SE,124,0.0,5.0,77,0.00,,FEW250,0.00,VWS V14.01,2013-09-24 01:03:00,
2013-09-23 20:05:00,59.3,52.1,30.01,SE,125,5.0,8.0,77,0.00,,CLR,0.00,VWS V14.01,2013-09-24 01:05:00,
2013-09-23 20:08:00,59.3,52.1,30.01,SE,132,6.0,10.0,77,0.00,,FEW250,0.00,VWS V14.01,2013-09-24 01:08:00,
2013-09-23 20:10:00,59.4,52.2,30.01,SE,126,0.0,8.0,77,0.00,,CLR,0.00,VWS V14.01,2013-09-24 01:10:00,
2013-09-23 20:13:00,59.5,52.3,30.01,ESE,115,0.0,8.0,77,0.00,,FEW250,0.00,VWS V14.01,2013-09-24 01:13:00,
2013-09-23 20:15:00,59.4,52.2,30.01,ESE,117,7.0,8.0,77,0.00,,CLR,0.00,VWS V14.01,2013-09-24 01:15:00,
2013-09-23 20:19:00,59.5,52.3,30.01,ESE,122,0.0,7.0,77,0.00,,FEW250,0.00,VWS V14.01,2013-09-24 01:19:00,
2013-09-23 20:20:00,59.5,52.3,30.01,SE,140,3.0,8.0,77,0.00,,CLR,0.00,VWS V14.01,2013-09-24 01:20:00,
2013-09-23 20:24:00,59.6,52.4,30.01,SE,129,3.0,7.0,77,0.00,,FEW250,0.00,VWS V14.01,2013-09-24 01:24:00,
2013-09-23 20:25:00,59.6,52.4,30.01,SE,129,3.0,7.0,77,0.00,,CLR,0.00,VWS V14.01,2013-09-24 01:25:00,
2013-09-23 20:30:00,59.7,52.1,30.01,SSE,163,0.0,8.0,76,0.00,,FEW250,0.00,VWS V14.01,2013-09-24 01:30:00,
2013-09-23 20:35:00,59.8,52.6,30.01,ESE,121,2.0,9.0,77,0.00,,FEW250,0.00,VWS V14.01,2013-09-24 01:35:00,
2013-09-23 20:40:00,60.0,52.4,30.01,SE,125,5.0,10.0,76,0.00,,FEW250,0.00,VWS V14.01,2013-09-24 01:40:00,
2013-09-23 20:45:00,60.0,52.4,30.01,SSE,159,0.0,8.0,76,0.00,,FEW250,0.00,VWS V14.01,2013-09-24 01:45:00,
2013-09-23 20:50:00,60.1,52.5,30.01,SE,127,0.0,9.0,76,0.00,,FEW250,0.00,VWS V14.01,2013-09-24 01:50:00,
2013-09-23 20:55:00,60.2,52.6,30.01,SSE,155,4.0,11.0,76,0.00,,FEW250,0.00,VWS V14.01,2013-09-24 01:55:00,
2013-09-23 21:00:00,60.4,52.8,30.01,ESE,120,0.0,8.0,76,0.00,,FEW250,0.00,VWS V14.01,2013-09-24 02:00:00,
2013-09-23 21:05:00,60.5,53.3,30.01,ESE,117,3.0,9.0,77,0.00,,FEW250,0.00,VWS V14.01,2013-09-24 02:05:00,
2013-09-23 21:10:00,60.5,52.9,30.01,ESE,117,0.0,11.0,76,0.00,,FEW250,0.00,VWS V14.01,2013-09-24 02:10:00,
2013-09-23 21:15:00,60.5,53.3,30.01,ESE,113,4.0,8.0,77,0.00,,FEW250,0.00,VWS V14.01,2013-09-24 02:15:00,
2013-09-23 21:20:00,60.6,53.4,30.01,East,100,6.0,10.0,77,0.00,,FEW250,0.00,VWS V14.01,2013-09-24 02:20:00,
2013-09-23 21:25:00,60.5,53.3,30.01,ESE,113,5.0,8.0,77,0.00,,FEW250,0.00,VWS V14.01,2013-09-24 02:25:00,
2013-09-23 21:30:00,60.6,53.4,30.01,SE,127,0.0,10.0,77,0.00,,FEW250,0.00,VWS V14.01,2013-09-24 02:30:00,
2013-09-23 21:35:00,60.6,53.7,30.01,SE,146,2.0,8.0,78,0.00,,FEW250,0.00,VWS V14.01,2013-09-24 02:35:00,
2013-09-23 21:40:00,60.7,53.8,30.01,ESE,105,3.0,12.0,78,0.00,,CLR,0.00,VWS V14.01,2013-09-24 02:40:00,
2013-09-23 21:41:00,60.6,53.4,30.01,ESE,109,9.0,12.0,77,0.00,,FEW250,0.00,VWS V14.01,2013-09-24 02:41:00,
2013-09-23 21:45:00,60.7,53.8,30.01,SE,131,10.0,12.0,78,0.00,,CLR,0.00,VWS V14.01,2013-09-24 02:45:00,
2013-09-23 21:46:00,60.7,53.5,30.01,ESE,112,5.0,12.0,77,0.00,,FEW250,0.00,VWS V14.01,2013-09-24 02:46:00,
2013-09-23 21:50:00,60.8,53.5,30.01,ESE,109,7.0,12.0,77,0.00,,CLR,0.00,VWS V14.01,2013-09-24 02:50:00,
2013-09-23 21:51:00,60.8,53.9,30.01,SE,131,3.0,12.0,78,0.00,,FEW250,0.00,VWS V14.01,2013-09-24 02:51:00,
2013-09-23 21:55:00,60.8,53.5,30.01,South,171,3.0,8.0,77,0.00,,CLR,0.00,VWS V14.01,2013-09-24 02:55:00,
2013-09-23 21:56:00,60.8,53.5,30.01,SE,126,0.0,8.0,77,0.00,,FEW250,0.00,VWS V14.01,2013-09-24 02:56:00,
2013-09-23 22:00:00,60.9,53.7,30.01,ESE,107,0.0,9.0,77,0.00,,CLR,0.00,VWS V14.01,2013-09-24 03:00:00,
2013-09-23 22:01:00,60.9,54.0,30.01,SE,128,2.0,9.0,78,0.00,,CLR,0.00,VWS V14.01,2013-09-24 03:01:00,
2013-09-23 22:05:00,60.9,54.0,30.01,SE,134,4.0,13.0,78,0.00,,CLR,0.00,VWS V14.01,2013-09-24 03:05:00,
2013-09-23 22:06:00,61.0,54.1,30.01,SE,130,0.0,13.0,78,0.00,,CLR,0.00,VWS V14.01,2013-09-24 03:06:00,
2013-09-23 22:10:00,61.0,54.1,30.01,SE,146,6.0,12.0,78,0.00,,CLR,0.00,VWS V14.01,2013-09-24 03:10:00,
2013-09-23 22:11:00,61.0,53.8,30.01,SE,136,0.0,12.0,77,0.00,,CLR,0.00,VWS V14.01,2013-09-24 03:11:00,
2013-09-23 22:15:00,61.1,54.2,30.01,SE,139,0.0,10.0,78,0.00,,CLR,0.00,VWS V14.01,2013-09-24 03:15:00,
2013-09-23 22:16:00,61.1,53.8,30.01,SSE,167,1.0,10.0,77,0.00,,CLR,0.00,VWS V14.01,2013-09-24 03:16:00,
2013-09-23 22:20:00,61.1,53.8,30.01,SE,140,0.0,10.0,77,0.00,,CLR,0.00,VWS V14.01,2013-09-24 03:20:00,
2013-09-23 22:21:00,61.1,53.8,30.01,SE,130,6.0,11.0,77,0.00,,CLR,0.00,VWS V14.01,2013-09-24 03:21:00,
2013-09-23 22:25:00,61.2,53.9,30.01,SE,139,4.0,13.0,77,0.00,,CLR,0.00,VWS V14.01,2013-09-24 03:25:00,
2013-09-23 22:26:00,61.2,53.9,30.01,SSE,156,4.0,13.0,77,0.00,,CLR,0.00,VWS V14.01,2013-09-24 03:26:00,
2013-09-23 22:30:00,61.3,54.4,30.01,SE,126,7.0,12.0,78,0.00,,CLR,0.00,VWS V14.01,2013-09-24 03:30:00,
2013-09-23 22:31:00,61.3,54.0,30.01,SE,144,9.0,12.0,77,0.00,,CLR,0.00,VWS V14.01,2013-09-24 03:31:00,
2013-09-23 22:35:00,61.3,53.7,30.01,SE,140,3.0,14.0,76,0.00,,CLR,0.00,VWS V14.01,2013-09-24 03:35:00,
2013-09-23 22:37:00,61.3,53.7,30.00,SE,126,8.0,14.0,76,0.00,,CLR,0.00,VWS V14.01,2013-09-24 03:37:00,
2013-09-23 22:40:00,61.4,54.5,30.00,ESE,119,10.0,12.0,78,0.00,,CLR,0.00,VWS V14.01,2013-09-24 03:40:00,
2013-09-23 22:42:00,61.3,54.0,30.01,SE,134,4.0,12.0,77,0.00,,CLR,0.00,VWS V14.01,2013-09-24 03:42:00,
2013-09-23 22:45:00,61.4,54.1,30.00,SE,134,3.0,12.0,77,0.00,,CLR,0.00,VWS V14.01,2013-09-24 03:45:00,
2013-09-23 22:47:00,61.4,54.5,30.00,SE,129,0.0,12.0,78,0.00,,CLR,0.00,VWS V14.01,2013-09-24 03:47:00,
2013-09-23 22:50:00,61.4,54.5,30.00,ESE,106,4.0,11.0,78,0.00,,CLR,0.00,VWS V14.01,2013-09-24 03:50:00,
2013-09-23 22:52:00,61.4,54.1,30.00,ESE,115,0.0,10.0,77,0.00,,CLR,0.00,VWS V14.01,2013-09-24 03:52:00,
2013-09-23 22:55:00,61.4,54.5,30.00,ESE,103,5.0,10.0,78,0.00,,CLR,0.00,VWS V14.01,2013-09-24 03:55:00,
2013-09-23 22:57:00,61.4,54.5,30.00,SE,128,5.0,10.0,78,0.00,,CLR,0.00,VWS V14.01,2013-09-24 03:57:00,
2013-09-23 23:00:00,61.4,54.5,30.00,SE,139,0.0,11.0,78,0.00,,CLR,0.00,VWS V14.01,2013-09-24 04:00:00,
2013-09-23 23:01:00,61.4,54.5,30.00,SSW,198,1.0,11.0,78,0.00,,FEW250,0.00,VWS V14.01,2013-09-24 04:01:00,
2013-09-23 23:02:00,61.4,54.5,30.00,North,360,9.0,13.0,78,0.00,,FEW250,0.00,VWS V14.01,2013-09-24 04:02:00,
2013-09-23 23:03:00,61.4,54.1,30.00,SE,136,0.0,13.0,77,0.00,,FEW250,0.00,VWS V14.01,2013-09-24 04:03:00,
2013-09-23 23:04:00,61.4,54.1,30.00,East,83,7.0,13.0,77,0.00,,FEW250,0.00,VWS V14.01,2013-09-24 04:04:00,
2013-09-23 23:05:00,61.4,54.5,30.00,SSE,166,5.0,13.0,78,0.00,,FEW250,0.00,VWS V14.01,2013-09-24 04:05:00,
2013-09-23 23:10:00,61.4,54.5,30.00,SSE,153,0.0,14.0,78,0.00,,FEW250,0.00,VWS V14.01,2013-09-24 04:10:00,
2013-09-23 23:15:00,61.4,54.5,30.00,SE,126,0.0,12.0,78,0.00,,FEW250,0.00,VWS V14.01,2013-09-24 04:15:00,
2013-09-23 23:20:00,61.4,54.5,30.00,East,101,3.0,10.0,78,0.00,,FEW250,0.00,VWS V14.01,2013-09-24 04:20:00,
2013-09-23 23:25:00,61.4,54.5,30.00,SSE,148,5.0,12.0,78,0.00,,FEW250,0.00,VWS V14.01,2013-09-24 04:25:00,
2013-09-23 23:30:00,61.4,54.5,30.00,SSE,151,0.0,10.0,78,0.00,,FEW250,0.00,VWS V14.01,2013-09-24 04:30:00,
2013-09-23 23:35:00,61.4,54.8,30.00,North,360,3.0,7.0,79,0.00,,FEW250,0.00,VWS V14.01,2013-09-24 04:35:00,
2013-09-23 23:40:00,61.4,54.8,30.00,SSE,163,0.0,10.0,79,0.00,,FEW250,0.00,VWS V14.01,2013-09-24 04:40:00,
2013-09-23 23:45:00,61.4,54.8,30.00,South,169,1.0,11.0,79,0.00,,FEW250,0.00,VWS V14.01,2013-09-24 04:45:00,
2013-09-23 23:50:00,61.4,55.2,29.99,SSE,162,0.0,15.0,80,0.00,,FEW250,0.00,VWS V14.01,2013-09-24 04:50:00,
2013-09-23 23:55:00,61.3,55.1,29.99,SE,138,8.0,15.0,80,0.00,,FEW250,0.00,VWS V14.01,2013-09-24 04:55:00,